User: anonymous   Login
Location: Unspecified
(0.0000°N, 0.0000°E)
Time: 01:52:03
(UTC+02:00)
Language:

Cosmos 1703 Rocket - Orbit

View from above orbital plane
View from above orbital plane
View from above satellite
View from above satellite

Ground track
Ground track

The orbit data is extracted from the following two-line orbital elements,

1 16263U 85108B   14296.59814211  .00000804  00000-0  96997-4 0  8044
2 16263 082.5019 301.8147 0018679 294.9677 204.8231 14.82503394560992
Epoch (UTC): 23 October 2014 14:21:19
Eccentricity: 0.0018679
inclination: 82.5019°
perigee height: 608 km
apogee height: 634 km
right ascension of ascending node: 301.8147°
argument of perigee: 294.9677°
revolutions per day: 14.82503394
mean anomaly at epoch: 204.8231°
orbit number at epoch: 56099

The dashed part of the orbit path shows where the satellite is in the earth's shadow,  

DLR